Time,TemperatureF,DewpointF,PressureIn,WindDirection,WindDirectionDegrees,WindSpeedMPH,WindSpeedGustMPH,Humidity,HourlyPrecipIn,Conditions,Clouds,dailyrainin,SoftwareType,DateUTC
2013-04-14 00:00:00,48.0,41.0,29.94,East,101,5.0,8.0,78,-99.99,,,-99.99,,2013-04-14 04:00:00,
2013-04-14 00:23:00,48.0,41.0,29.94,East,101,5.0,8.0,78,-99.99,,,-99.99,,2013-04-14 04:23:00,
2013-04-14 00:33:00,48.0,41.0,29.94,East,101,5.0,8.0,78,-99.99,,,-99.99,,2013-04-14 04:33:00,
2013-04-14 00:43:00,48.0,41.0,29.94,East,101,5.0,8.0,78,-99.99,,,-99.99,,2013-04-14 04:43:00,
2013-04-14 00:53:00,48.0,41.0,29.94,East,101,5.0,8.0,78,-99.99,,,-99.99,,2013-04-14 04:53:00,
2013-04-14 01:00:00,47.0,41.0,29.97,SE,145,0.0,9.0,80,-99.99,,,-99.99,,2013-04-14 05:00:00,
2013-04-14 01:23:00,47.0,41.0,29.97,SE,145,0.0,9.0,80,-99.99,,,-99.99,,2013-04-14 05:23:00,
2013-04-14 01:32:00,47.0,41.0,29.97,SE,145,0.0,9.0,80,-99.99,,,-99.99,,2013-04-14 05:32:00,
2013-04-14 01:42:00,47.0,41.0,29.97,SE,145,0.0,9.0,80,-99.99,,,-99.99,,2013-04-14 05:42:00,
2013-04-14 01:53:00,47.0,41.0,29.97,SE,145,0.0,9.0,80,-99.99,,,-99.99,,2013-04-14 05:53:00,
2013-04-14 02:00:00,47.0,41.0,29.97,ESE,111,4.0,7.0,79,-99.99,,,-99.99,,2013-04-14 06:00:00,
2013-04-14 02:32:00,47.0,41.0,29.97,ESE,111,4.0,7.0,79,-99.99,,,-99.99,,2013-04-14 06:32:00,
2013-04-14 02:42:00,47.0,41.0,29.97,ESE,111,4.0,7.0,79,-99.99,,,-99.99,,2013-04-14 06:42:00,
2013-04-14 02:53:00,47.0,41.0,29.97,ESE,111,4.0,7.0,79,-99.99,,,-99.99,,2013-04-14 06:53:00,
2013-04-14 03:00:00,42.0,38.0,29.97,ESE,113,0.0,6.0,86,-99.99,,,-99.99,,2013-04-14 07:00:00,
2013-04-14 03:33:00,42.0,38.0,29.97,ESE,113,0.0,6.0,86,-99.99,,,-99.99,,2013-04-14 07:33:00,
2013-04-14 03:42:00,42.0,38.0,29.97,ESE,113,0.0,6.0,86,-99.99,,,-99.99,,2013-04-14 07:42:00,
2013-04-14 03:52:00,42.0,38.0,29.97,ESE,113,0.0,6.0,86,-99.99,,,-99.99,,2013-04-14 07:52:00,
2013-04-14 04:00:00,43.0,40.0,29.94,East,85,4.0,7.0,89,-99.99,,,-99.99,,2013-04-14 08:00:00,
2013-04-14 04:23:00,43.0,40.0,29.94,East,85,4.0,7.0,89,-99.99,,,-99.99,,2013-04-14 08:23:00,
2013-04-14 04:33:00,43.0,40.0,29.94,East,85,4.0,7.0,89,-99.99,,,-99.99,,2013-04-14 08:33:00,
2013-04-14 04:43:00,43.0,40.0,29.94,East,85,4.0,7.0,89,-99.99,,,-99.99,,2013-04-14 08:43:00,
2013-04-14 04:52:00,43.0,40.0,29.94,East,85,4.0,7.0,89,-99.99,,,-99.99,,2013-04-14 08:52:00,
2013-04-14 05:00:00,41.0,38.0,29.97,South,188,0.0,8.0,91,-99.99,,,-99.99,,2013-04-14 09:00:00,
2013-04-14 05:22:00,41.0,38.0,29.97,South,188,0.0,8.0,91,-99.99,,,-99.99,,2013-04-14 09:22:00,
2013-04-14 05:33:00,41.0,38.0,29.97,South,188,0.0,8.0,91,-99.99,,,-99.99,,2013-04-14 09:33:00,
2013-04-14 05:43:00,41.0,38.0,29.97,South,188,0.0,8.0,91,-99.99,,,-99.99,,2013-04-14 09:43:00,
2013-04-14 05:54:00,41.0,38.0,29.97,South,188,0.0,8.0,91,-99.99,,,-99.99,,2013-04-14 09:54:00,
2013-04-14 06:00:00,38.0,36.0,29.97,South,173,0.0,6.0,92,-99.99,,,-99.99,,2013-04-14 10:00:00,
2013-04-14 06:33:00,38.0,36.0,29.97,South,173,0.0,6.0,92,-99.99,,,-99.99,,2013-04-14 10:33:00,
2013-04-14 06:43:00,38.0,36.0,29.97,South,173,0.0,6.0,92,-99.99,,,-99.99,,2013-04-14 10:43:00,
2013-04-14 06:53:00,38.0,36.0,29.97,South,173,0.0,6.0,92,-99.99,,,-99.99,,2013-04-14 10:53:00,
2013-04-14 07:00:00,38.0,36.0,30.00,SW,224,0.0,5.0,93,-99.99,,,-99.99,,2013-04-14 11:00:00,
2013-04-14 07:33:00,38.0,36.0,30.00,SW,224,0.0,5.0,93,-99.99,,,-99.99,,2013-04-14 11:33:00,
2013-04-14 07:42:00,38.0,36.0,30.00,SW,224,0.0,5.0,93,-99.99,,,-99.99,,2013-04-14 11:42:00,
2013-04-14 07:53:00,38.0,36.0,30.00,SW,224,0.0,5.0,93,-99.99,,,-99.99,,2013-04-14 11:53:00,
2013-04-14 08:00:00,47.0,44.0,30.03,South,180,0.0,6.0,90,-99.99,,,-99.99,,2013-04-14 12:00:00,
2013-04-14 08:22:00,47.0,44.0,30.03,South,180,0.0,6.0,90,-99.99,,,-99.99,,2013-04-14 12:22:00,
2013-04-14 08:32:00,47.0,44.0,30.03,South,180,0.0,6.0,90,-99.99,,,-99.99,,2013-04-14 12:32:00,
2013-04-14 08:42:00,47.0,44.0,30.03,South,180,0.0,6.0,90,-99.99,,,-99.99,,2013-04-14 12:42:00,
2013-04-14 08:52:00,47.0,44.0,30.03,South,180,0.0,6.0,90,-99.99,,,-99.99,,2013-04-14 12:52:00,
2013-04-14 09:00:00,54.0,43.0,30.03,WSW,249,7.0,11.0,65,-99.99,,,-99.99,,2013-04-14 13:00:00,
2013-04-14 09:23:00,54.0,43.0,30.03,WSW,249,7.0,11.0,65,-99.99,,,-99.99,,2013-04-14 13:23:00,
2013-04-14 09:33:00,54.0,43.0,30.03,WSW,249,7.0,11.0,65,-99.99,,,-99.99,,2013-04-14 13:33:00,
2013-04-14 09:43:00,54.0,43.0,30.03,WSW,249,7.0,11.0,65,-99.99,,,-99.99,,2013-04-14 13:43:00,
2013-04-14 09:52:00,54.0,43.0,30.03,WSW,249,7.0,11.0,65,-99.99,,,-99.99,,2013-04-14 13:52:00,
2013-04-14 10:00:00,60.0,35.0,30.06,NW,312,5.0,10.0,38,-99.99,,,-99.99,,2013-04-14 14:00:00,
2013-04-14 10:32:00,60.0,35.0,30.06,NW,312,5.0,10.0,38,-99.99,,,-99.99,,2013-04-14 14:32:00,
2013-04-14 10:42:00,60.0,35.0,30.06,NW,312,5.0,10.0,38,-99.99,,,-99.99,,2013-04-14 14:42:00,
2013-04-14 10:53:00,60.0,35.0,30.06,NW,312,5.0,10.0,38,-99.99,,,-99.99,,2013-04-14 14:53:00,
2013-04-14 11:00:00,61.0,34.0,30.06,NW,318,7.0,12.0,35,-99.99,,,-99.99,,2013-04-14 15:00:00,
2013-04-14 11:23:00,61.0,34.0,30.06,NW,318,7.0,12.0,35,-99.99,,,-99.99,,2013-04-14 15:23:00,
2013-04-14 11:34:00,61.0,34.0,30.06,NW,318,7.0,12.0,35,-99.99,,,-99.99,,2013-04-14 15:34:00,
2013-04-14 11:44:00,61.0,34.0,30.06,NW,318,7.0,12.0,35,-99.99,,,-99.99,,2013-04-14 15:44:00,
2013-04-14 11:53:00,61.0,34.0,30.06,NW,318,7.0,12.0,35,-99.99,,,-99.99,,2013-04-14 15:53:00,
2013-04-14 12:00:00,62.0,34.0,30.06,North,350,6.0,20.0,36,-99.99,,,-99.99,,2013-04-14 16:00:00,
2013-04-14 12:23:00,62.0,34.0,30.06,North,350,6.0,20.0,36,-99.99,,,-99.99,,2013-04-14 16:23:00,
2013-04-14 12:33:00,62.0,34.0,30.06,North,350,6.0,20.0,36,-99.99,,,-99.99,,2013-04-14 16:33:00,
2013-04-14 12:43:00,62.0,34.0,30.06,North,350,6.0,20.0,36,-99.99,,,-99.99,,2013-04-14 16:43:00,
2013-04-14 12:53:00,62.0,34.0,30.06,North,350,6.0,20.0,36,-99.99,,,-99.99,,2013-04-14 16:53:00,
2013-04-14 13:00:00,62.0,33.0,30.06,NW,313,3.0,20.0,34,-99.99,,,-99.99,,2013-04-14 17:00:00,
2013-04-14 13:33:00,62.0,33.0,30.06,NW,313,3.0,20.0,34,-99.99,,,-99.99,,2013-04-14 17:33:00,
2013-04-14 13:43:00,62.0,33.0,30.06,NW,313,3.0,20.0,34,-99.99,,,-99.99,,2013-04-14 17:43:00,
2013-04-14 13:53:00,62.0,33.0,30.06,NW,313,3.0,20.0,34,-99.99,,,-99.99,,2013-04-14 17:53:00,
2013-04-14 14:00:00,62.0,33.0,30.06,WNW,283,5.0,22.0,33,-99.99,,,-99.99,,2013-04-14 18:00:00,
2013-04-14 14:33:00,62.0,33.0,30.06,WNW,283,5.0,22.0,33,-99.99,,,-99.99,,2013-04-14 18:33:00,
2013-04-14 14:43:00,62.0,33.0,30.06,WNW,283,5.0,22.0,33,-99.99,,,-99.99,,2013-04-14 18:43:00,
2013-04-14 14:54:00,62.0,33.0,30.06,WNW,283,5.0,22.0,33,-99.99,,,-99.99,,2013-04-14 18:54:00,
2013-04-14 15:00:00,64.0,30.0,30.06,SW,224,4.0,17.0,28,-99.99,,,-99.99,,2013-04-14 19:00:00,
2013-04-14 15:22:00,64.0,30.0,30.06,SW,224,4.0,17.0,28,-99.99,,,-99.99,,2013-04-14 19:22:00,
2013-04-14 15:33:00,64.0,30.0,30.06,SW,224,4.0,17.0,28,-99.99,,,-99.99,,2013-04-14 19:33:00,
2013-04-14 15:43:00,64.0,30.0,30.06,SW,224,4.0,17.0,28,-99.99,,,-99.99,,2013-04-14 19:43:00,
2013-04-14 15:53:00,64.0,30.0,30.06,SW,224,4.0,17.0,28,-99.99,,,-99.99,,2013-04-14 19:53:00,
2013-04-14 16:00:00,63.0,28.0,30.06,SSE,166,3.0,14.0,26,-99.99,,,-99.99,,2013-04-14 20:00:00,
2013-04-14 16:22:00,63.0,28.0,30.06,SSE,166,3.0,14.0,26,-99.99,,,-99.99,,2013-04-14 20:22:00,
2013-04-14 16:33:00,63.0,28.0,30.06,SSE,166,3.0,14.0,26,-99.99,,,-99.99,,2013-04-14 20:33:00,
2013-04-14 16:43:00,63.0,28.0,30.06,SSE,166,3.0,14.0,26,-99.99,,,-99.99,,2013-04-14 20:43:00,
2013-04-14 16:53:00,63.0,28.0,30.06,SSE,166,3.0,14.0,26,-99.99,,,-99.99,,2013-04-14 20:53:00,
2013-04-14 17:00:00,63.0,29.0,30.09,East,95,5.0,16.0,27,-99.99,,,-99.99,,2013-04-14 21:00:00,
2013-04-14 17:23:00,63.0,29.0,30.09,East,95,5.0,16.0,27,-99.99,,,-99.99,,2013-04-14 21:23:00,
2013-04-14 17:33:00,63.0,29.0,30.09,East,95,5.0,16.0,27,-99.99,,,-99.99,,2013-04-14 21:33:00,
2013-04-14 17:43:00,63.0,29.0,30.09,East,95,5.0,16.0,27,-99.99,,,-99.99,,2013-04-14 21:43:00,
2013-04-14 17:53:00,63.0,29.0,30.09,East,95,5.0,16.0,27,-99.99,,,-99.99,,2013-04-14 21:53:00,
2013-04-14 18:00:00,62.0,29.0,30.09,East,81,4.0,11.0,29,-99.99,,,-99.99,,2013-04-14 22:00:00,
2013-04-14 18:23:00,62.0,29.0,30.09,East,81,4.0,11.0,29,-99.99,,,-99.99,,2013-04-14 22:23:00,
2013-04-14 18:33:00,62.0,29.0,30.09,East,81,4.0,11.0,29,-99.99,,,-99.99,,2013-04-14 22:33:00,
2013-04-14 18:44:00,62.0,29.0,30.09,East,81,4.0,11.0,29,-99.99,,,-99.99,,2013-04-14 22:44:00,
2013-04-14 18:53:00,62.0,29.0,30.09,East,81,4.0,11.0,29,-99.99,,,-99.99,,2013-04-14 22:53:00,
2013-04-14 19:00:00,60.0,31.0,30.12,East,86,6.0,8.0,34,-99.99,,,-99.99,,2013-04-14 23:00:00,
2013-04-14 19:23:00,60.0,31.0,30.12,East,86,6.0,8.0,34,-99.99,,,-99.99,,2013-04-14 23:23:00,
2013-04-14 19:33:00,60.0,31.0,30.12,East,86,6.0,8.0,34,-99.99,,,-99.99,,2013-04-14 23:33:00,
2013-04-14 19:43:00,60.0,31.0,30.12,East,86,6.0,8.0,34,-99.99,,,-99.99,,2013-04-14 23:43:00,
2013-04-14 19:53:00,60.0,31.0,30.12,East,86,6.0,8.0,34,-99.99,,,-99.99,,2013-04-14 23:53:00,
2013-04-14 20:00:00,54.0,34.0,30.12,ENE,67,0.0,8.0,47,-99.99,,,-99.99,,2013-04-15 00:00:00,
2013-04-14 20:23:00,54.0,34.0,30.12,ENE,67,0.0,8.0,47,-99.99,,,-99.99,,2013-04-15 00:23:00,
2013-04-14 20:33:00,54.0,34.0,30.12,ENE,67,0.0,8.0,47,-99.99,,,-99.99,,2013-04-15 00:33:00,
2013-04-14 20:43:00,54.0,34.0,30.12,ENE,67,0.0,8.0,47,-99.99,,,-99.99,,2013-04-15 00:43:00,
2013-04-14 20:53:00,54.0,34.0,30.12,ENE,67,0.0,8.0,47,-99.99,,,-99.99,,2013-04-15 00:53:00,
2013-04-14 22:00:00,49.0,37.0,30.15,NNW,329,0.0,0.0,63,-99.99,,,-99.99,,2013-04-15 02:00:00,
2013-04-14 22:22:00,49.0,37.0,30.15,NNW,329,0.0,0.0,63,-99.99,,,-99.99,,2013-04-15 02:22:00,
2013-04-14 22:32:00,49.0,37.0,30.15,NNW,329,0.0,0.0,63,-99.99,,,-99.99,,2013-04-15 02:32:00,
2013-04-14 22:42:00,49.0,37.0,30.15,NNW,329,0.0,0.0,63,-99.99,,,-99.99,,2013-04-15 02:42:00,
2013-04-14 22:53:00,49.0,37.0,30.15,NNW,329,0.0,0.0,63,-99.99,,,-99.99,,2013-04-15 02:53:00,
2013-04-14 23:00:00,48.0,38.0,30.12,NW,314,0.0,6.0,69,-99.99,,,-99.99,,2013-04-15 03:00:00,
2013-04-14 23:22:00,48.0,38.0,30.12,NW,314,0.0,6.0,69,-99.99,,,-99.99,,2013-04-15 03:22:00,
2013-04-14 23:33:00,48.0,38.0,30.12,NW,314,0.0,6.0,69,-99.99,,,-99.99,,2013-04-15 03:33:00,
2013-04-14 23:43:00,48.0,38.0,30.12,NW,314,0.0,6.0,69,-99.99,,,-99.99,,2013-04-15 03:43:00,
2013-04-14 23:55:00,48.0,38.0,30.12,NW,314,0.0,6.0,69,-99.99,,,-99.99,,2013-04-15 03:55:00,